Main page
METAR-TAF:

METAR-TAF

Airports :

Mallam Aminu Kano International Airport

Kano, Nigeria

latitude: 12-03N, longitude: 008-32E, elevation: 476 m

Current weather observation

The report was made 1 hour and 51 minutes ago, at 23:00 UTC
Wind 8 kt from the Southwest
Temperature 25°C
Humidity 89%
Pressure 1015 hPa
Visibility 10 km or more
no clouds below 1500 m and no cumulonimbus

METAR: DNKN 022300Z 22008KT CAVOK 25/23 Q1015 NOSIG

Time: 01:51 (00:51 UTC)


TAF: missing

Weather observations and forecasts of more than 4000 airports (METAR and TAF reports).

The available stations are represented by yellow and red dots on the map.

Hover mouse over dot to see the name of the station.

Then click to see weather observations and forecasts.

To change the map : click on the green buttons with a black cross to zoom in, on the green button with a dash to zoom out, or on the green arrows for adjacent maps.


METAR-TAF: